Regional Weather Roundup
Issued by NWS Pendleton, OR

Current Version | Previous Version | Text Only | Print | Product List | Glossary On
Versions: 1 2 3 4 5 6 7 8 9 10 11 12 13 14 15 16 17 18 19 20 21 22 23 24 25 26 27 28 29 30 31 32 33 34 35 36 37 38 39 40 41 42 43 44 45 46 47 48 49 50
404
ASUS46 KPDT 060810
RWRPDT
PENDLETON REGIONAL WEATHER ROUNDUP
NATIONAL WEATHER SERVICE PENDLETON OREGON
1200 AM PST SAT FEB 6 2016

NOTE: FAIR INDICATES FEW OR NO CLOUDS BELOW 12,000 FEET WITH NO
SIGNIFICANT WEATHER AND/OR OBSTRUCTIONS TO VISIBILITY.

# INDICATES UNOFFICIAL STATION AND DATA

WAZ520-060910-
EAST SLOPES OF WASHINGTON CASCADES

CITY            SKY/WX      TMP DP  RH  WIND    PRES   REMARKS
#BUMPING DAM    N/A         33  N/A N/A S2      N/A
#CLE ELUM HS    N/A         37  35  92  NW5     30.11R
#CLE ELUM 2NW   N/A         35  34  96  CALM    N/A
#CLE ELUM LAKE  N/A         34  33  96  W3      30.23R
#CLIFFDEL 2NW   N/A         36  29  75  W1      N/A
#GLENWOOD       N/A         40  36  85  SW3     30.32R
#MANASTASH CYN  N/A         34  26  72  CALM    30.12R
#NELSON 3SW     N/A         33  32  96  CALM    30.42R
#NILE           N/A         30  29  96  CALM    29.47R
#PEOH POINT     N/A         31  31  100 W3      N/A
#RONALD 2NW     N/A         36  N/A N/A W3      30.00R
#SOUTH BLEWITT  N/A         33  33  100 CALM    N/A
#TEANAWAY 4NE   N/A         37  36  96  CALM    N/A
#TROUT LAKE 1NE N/A         38  35  89  W12     30.32R WCI 30
#TROUT LAKE 1E  N/A         38  37  96  CALM    30.22R
$$

WAZ521-060910-
SIMCOE HIGHLANDS

CITY            SKY/WX      TMP DP  RH  WIND    PRES   REMARKS
#BICKLETON HS   N/A         36  30  79  W15G24  N/A    WCI 27
#SATUS PASS DOT N/A         35  33  92  CALM    N/A
#CENTERVILLE 1SWN/A         41  35  79  SW8     30.25R
#GOLDENDALE     N/A         42  38  86  SW13    N/A    WCI 35
#GOLDENDALE 1NE N/A         42  32  67  SW3     N/A
#GOODNOE HILLS  N/A         43  36  76  NW12    30.16R WCI 37
#LYLE 6NE       N/A         41  39  93  SW9     30.27R
$$

WAZ026-060910-
KITTITAS VALLEY

CITY            SKY/WX      TMP DP  RH  WIND    PRES   REMARKS
ELLENSBURG AP   CLEAR       38  31  76  W13     30.15R WCI 30
#ELLENSBURG CWU N/A         30  29  96  E2      30.15R
#ELLENSBURG 3NE N/A         29  28  96  CALM    30.14R
#ELLENSBURG     N/A         33  34  100 N2      N/A
#KITTITAS 4N    N/A         32  30  92  SE5     30.18R
#KITTITAS 3S    N/A         23  22  96  E1      30.21R
#THORP 6N       N/A         38  34  85  W22G37  30.22R WCI 27
$$

WAZ027-060910-
YAKIMA VALLEY

CITY            SKY/WX      TMP DP  RH  WIND    PRES   REMARKS
SUNNYSIDE AP    CLEAR       45  33  63  SW22G26 30.21R WCI 37
YAKIMA AIRPORT  CLEAR       47  28  47  W14     30.18R WCI 41
YAKIMA-VAGABOND CLEAR       43  27  53  SW9     30.16R
#DONALD 2NE     N/A         43  28  55  W1      29.04R
#GRANDVIEW      N/A         47  33  58  SW8     30.26R
#MABTON         N/A         49  36  61  SW10    30.20R
#MOXEE 2E       N/A         44  30  58  S9      30.14R
#NACHES 2SW     N/A         42  30  62  W5      30.15R
#TERRACE HTS    N/A         37  31  79  CALM    30.19R
#TOPPENISH      N/A         46  36  68  CALM    30.14R
#WEST VALLEY    N/A         43  32  65  SW3     30.19R
#W YAKIMA       N/A         45  30  55  W2      30.22R
#WHITE SWAN 5E  N/A         45  36  70  SW16G25 30.21R WCI 38
#WILEY CITY 3W  N/A         43  27  53  CALM    30.14R
$$

WAZ028-060910-
LOWER COLUMBIA BASIN...WASHINGTON

CITY            SKY/WX      TMP DP  RH  WIND    PRES   REMARKS
PASCO           MOCLDY      51  37  59  SW18G25 30.21S
PROSSER AWOS    N/A         46  34  63  SW16    30.27R WCI 39
RICHLAND AWOS   PTCLDY      52  38  59  S16     30.21R
#BENTON CITY    N/A         51  35  54  SW15G24 30.12R
#CONNELL 5N     N/A         43  38  82  S2      30.16F
#ELTOPIA 6NW    N/A         48  39  71  S6      29.13S
#KAHLOTUS       N/A         47  39  74  W25G32  30.18R WCI 39
#KENNEWICK 3S   N/A         48  41  77  S9      30.22R
#PATERSON       N/A         44  40  86  SW2     30.24R
#PROSSER DOT    N/A         49  36  61  SW7     N/A
#PROSSER        N/A         51  29  42  SW16G26 30.21S
#SAGEMOOR 2W    N/A         49  40  71  SW2     30.06R
#TOUCHET 2S     N/A         51  39  63  SW10    30.23R
#WEST PASCO     N/A         52  40  63  W7      30.21S
$$

WAZ029-060910-
FOOTHILLS OF THE BLUES...WASHINGTON

CITY            SKY/WX      TMP DP  RH  WIND    PRES   REMARKS
WALLA WALLA AP  CLOUDY      50  36  58  S16     30.24R
#CLYDE 6NW      N/A         49  39  68  W16     30.20R WCI 43
#DAYTON SCHOOL  N/A         52  28  39  S8      30.22R
#DELANEY DOT    N/A         55  30  38  SW12    N/A
#LOWDEN 2SE     N/A         53  40  61  W10     30.22R
#PLEASANT VIEW 1N/A         47  37  68  SW15    30.24R WCI 41
#PRESCOTT       N/A         53  38  57  SW7     30.20R
#WHITMAN COLLEGEN/A         53  37  54  SW16G26 30.28R
#WAITSBURG 5S   N/A         50  34  54  SW12    30.31R
#WAITSBURG 8N   N/A         48  10  21  S13G25  30.06R WCI 43
#WALLA WALLA 5E N/A         51  38  61  SW20    N/A
#WALLA WALLA U  N/A         54  38  55  CALM    30.23R
#WHITMAN MISSIONN/A         53  40  61  SW13    30.26R
$$

WAZ030-060910-
BLUE MOUNTAINS...WASHINGTON

CITY            SKY/WX      TMP DP  RH  WIND    PRES   REMARKS
#DIXIE 5SE      N/A         45  32  60  SW21G31 30.14R WCI 37
#SKI BLUEWOOD   N/A         36  30  79  S7      30.19S
$$

ORZ009-041-WAZ024-060910-
COLUMBIA RIVER GORGE

CITY            SKY/WX      TMP DP  RH  WIND    PRES   REMARKS
HOOD RIVER AP   PTCLDY      41  37  86  CALM    30.32R
THE DALLES AP   PTCLDY      46  36  68  N10     30.29R
#ARLINGTON AIRPON/A         45  39  79  W13     30.28R WCI 39
#ARLINGTON HS   N/A         47  38  71  SW14    30.19R WCI 41
#LYLE           N/A         49  42  77  NW8     30.31R
#MARYHILL       N/A         47  34  60  CALM    N/A
#MARYHILL 2W    N/A         46  38  73  SW8     N/A
#MOSIER 1S      N/A         44  29  55  SW8     30.29R

$$

ORZ510-060910-
NORTH CENTRAL OREGON

CITY            SKY/WX      TMP DP  RH  WIND    PRES   REMARKS
#CHENOWITH 1W   N/A         42  35  76  W29G38  N/A    WCI 31
#COW CYN RST AREN/A         42  33  70  SW8     N/A
#DUFUR 9E       N/A         40  35  82  CALM    30.31R
#GRASS VALLEY 1SN/A         40  34  79  SW17    30.30R WCI 31
#MAUPIN SCHOOL  N/A         48  36  63  CALM    30.30R
#MORO SCHOOL    N/A         39  37  92  W7      30.26R
#SHANIKO 4NW    N/A         39  33  79  W9      30.23R
#TYGH VALLEY 2NEN/A         46  36  68  SW13    30.29R WCI 40
#WAPANITIA AIRPON/A         43  35  73  W12     30.30R WCI 37
#WASCO 5NE      N/A         40  37  89  CALM    30.29R
$$

ORZ511-060910-
CENTRAL OREGON

CITY            SKY/WX      TMP DP  RH  WIND    PRES   REMARKS
BEND AIRPORT    PTCLDY      45  34  65  SW15    30.31R WCI 38
MADRAS AIRPORT  PTCLDY      43  34  70  SW15    30.30R WCI 36
PRINEVILLE AP   PTCLDY      43  34  70  VRB6    30.30R
REDMOND AIRPORT MOCLDY      42  33  70  NE5     30.29R
#ASHWOOD SCHOOL N/A         47  34  60  CALM    30.22R
#BEND 6E        N/A         45  32  60  CALM    30.27R
#BEND 1SW       N/A         41  35  79  SW2     N/A
#BEND-KIM LN    N/A         44  36  73  SW10    30.26R
#LAKE BILLY CHINN/A         43  N/A N/A S6      30.35R
#MADRAS         N/A         44  35  70  S10     N/A
#POWELL BUTTE 3EN/A         48  30  49  SW15G26 N/A    WCI 42
#PRINEVILLE 3N  N/A         42  35  76  W5      30.33R
#WARM SPRINGS   N/A         48  36  63  N3      30.23R

$$


ORZ509-060910-
EAST SLOPES OF OREGON CASCADES

CITY            SKY/WX      TMP DP  RH  WIND    PRES   REMARKS
SISTERS AWOS    N/A         43  36  76  W10     30.22S
#BLUE BOX PASS  N/A         33  N/A N/A CALM    N/A
#BLACK BUTTE RNCN/A         39  35  85  E1      30.34R
#CAMP SHERMAN   N/A         36  32  85  CALM    30.42R
#LA PINE 4NW    N/A         41  31  67  CALM    30.44S
#SISTERS AIRPOR N/A         42  39  89  N3      30.17S
#SISTERS ODOT   N/A         43  N/A N/A W3      N/A
#SISTERS 3N     N/A         40  31  70  CALM    30.26S
#SUNRIVER       N/A         40  34  79  SW3     30.39R
#TUMALO 3W      N/A         44  33  65  NE3     30.19R

$$

ORZ044-060910-
LOWER COLUMBIA BASIN...OREGON

CITY            SKY/WX      TMP DP  RH  WIND    PRES   REMARKS
HERMISTON       CLOUDY      48  40  74  SW7     30.27R
#BOARDMAN SCHOOLN/A         48  41  77  SW12    30.24F WCI 43
#BOARDMAN 8SW   N/A         46  40  79  SW8     30.26R
#ECHO 8SW       N/A         48  39  71  SW5     30.27R
#IONE SCHOOL    N/A         46  28  49  SW7     30.22S
#IRRIGON 4NW    N/A         46  43  89  S7      N/A
#UMATILLA SCHOOLN/A         44  43  96  W7      30.26R
#UMATILLA       N/A         47  39  74  CALM    30.20R
$$

ORZ507-060910-
NORTHERN FOOTHILLS OF THE BLUES

CITY            SKY/WX      TMP DP  RH  WIND    PRES   REMARKS
PENDLETON AIRPT CLOUDY      45  37  73  W21G30  30.25R WCI 37
#ADAMS 3WNW     N/A         45  38  76  W14     30.28R WCI 39
#ATHENA         N/A         46  37  71  SW9     30.31R
#CAYUSE         N/A         46  38  73  S8      30.29R
#HELIX SCHOOL   N/A         46  38  73  N12     30.28R WCI 40
#HELIX 3N       N/A         43  37  79  SW21    30.20R WCI 34
#HOLDMAN 5SE    N/A         43  40  89  CALM    30.33S
#HOLDMAN 6E     N/A         44  38  79  N20G26  30.07R WCI 36
#M-F GROVE ELEM N/A         52  34  50  SW2     30.23R
#M-FREEWATER 5SEN/A         50  37  61  SW7     30.27R
#PDT AQUATIC CTRN/A         48  29  47  W10     30.28R
#PDT SUNRIDGE   N/A         47  38  71  W5      30.29R
#PENDLETON 7NW  N/A         46  38  73  W9      26.60S
#PILOT ROCK     N/A         46  32  58  W6      30.26R
#TUTUILLA       N/A         47  38  71  CALM    30.28R
#UMAPINE 2E     N/A         53  40  61  W9      30.22R
#WESTON SCHOOL  N/A         47  35  63  W8      30.22R

$$

ORZ508-060910-
SOUTHERN FOOTHILLS OF THE BLUES

CITY            SKY/WX      TMP DP  RH  WIND    PRES   REMARKS
LEXINGTON       MOCLDY      45  39  79  SW12    30.29R WCI 39
#CONDON SCHOOL  N/A         43  37  79  W7      30.19R
#CONDON 5W      N/A         39  32  76  W22G31  30.21S WCI 29
#FOSSIL SCHOOL  N/A         49  35  58  W15     30.19R WCI 43
#HEPPNER EOC    N/A         43  38  82  W7      30.21R
#HEPPNER 4NE    N/A         40  37  89  W9      30.25S
#LEXINGTON 2SE  N/A         46  39  76  NW1     30.22S
#MIKKALO        N/A         42  37  82  W2      30.35R
#OLEX 4N        N/A         44  40  86  SW12    30.24R WCI 38
#RUGGS 5NE      N/A         40  39  96  W3      30.40S
#RUGGS 2SW      N/A         43  36  76  W7      30.29R

$$

ORZ502-503-060910-
BLUE MOUNTAINS

CITY            SKY/WX      TMP DP  RH  WIND    PRES   REMARKS
MEACHAM         CLOUDY      36  31  82  CALM    30.28R
#HEPPNER 15SE   N/A         42  30  62  E5      30.15R
#LONG CREEK HS  N/A         46  31  56  CALM    N/A
#PIKES PEAK     N/A         42  31  65  SW32G41 27.99S WCI 31
#TOLLGATE       N/A         31  30  96  SW1     30.06S
#TROY SCHOOL    N/A         37  34  89  W1      30.16F
#UKIAH          N/A         38  29  70  CALM    30.24R
#WESTON 4E      N/A         42  33  70  SW8     30.28R
$$

ORZ505-060910-
JOHN DAY BASIN

CITY            SKY/WX      TMP DP  RH  WIND    PRES   REMARKS
JOHN DAY        CLOUDY      48  26  42  SW16    30.30S WCI 42
#DAYVILLE SCHOOLN/A         46  28  49  SE1     30.23R
#MITCHELL       N/A         47  32  56  SE1     30.41R
#MITCHELL 8NW   N/A         47  27  45  S1      30.48R
#MONUMENT HS    N/A         42  30  62  CALM    30.16F
#MT. VERNON 5SE N/A         40  29  64  SE6     30.26R
#SPRAY SCHOOL   N/A         54  N/A N/A CALM    N/A
#WINLOCK        N/A         45  30  55  CALM    30.20S
$$

ORZ506-060910-
OCHOCO AND JOHN DAY HIGHLANDS

CITY            SKY/WX      TMP DP  RH  WIND    PRES   REMARKS
#HORSE RIDGE DO N/A         46  30  53  W5      N/A
#PAULINA SCHOOL N/A         46  30  53  CALM    30.22R
#PINE MTN OBS   N/A         35  29  78  S5      N/A
#PRAIRIE CITY   N/A         35  24  64  CALM    30.28R
#SENECA         N/A         35  N/A N/A SW5     N/A
#SENECA 9NW     N/A         33  28  82  CALM    30.47R
$$

ORZ049-060910-
GRANDE RONDE VALLEY

CITY            SKY/WX      TMP DP  RH  WIND    PRES   REMARKS
LA GRANDE       CLOUDY      41  28  59  S16G26  30.30S WCI 33
#COVE           N/A         45  34  65  S5      30.28F
#COVE SCHOOL    N/A         46  32  58  S5G25   30.26F
#COVE 6NW       N/A         40  33  76  S14G25  30.16F WCI 32
#ELGIN 3N       N/A         39  28  64  S22     30.22S WCI 29
#ELGIN 1E       N/A         40  32  73  S3      N/A
#IMBLER SCHOOL  N/A         38  32  79  S5      30.24R
#ISLAND CITY 4N N/A         41  40  96  CALM    30.36R
#UNION 1S       N/A         40  34  79  S15G25  30.30R WCI 32
$$

ORZ050-060910-
WALLOWA COUNTY

CITY            SKY/WX      TMP DP  RH  WIND    PRES   REMARKS
#ENTERPRISE AP  N/A         30  28  92  CALM    30.16R
#ENTERPRISE HS  N/A         30  29  96  CALM    30.25R
#IMNAHA SCHOOL  N/A         48  31  51  S15G28  30.25R WCI 42
#JOSEPH 3N      N/A         29  25  85  NW7     30.24R
#JOSEPH 3W      N/A         30  24  78  S1      30.04R
#LOSTINE        N/A         30  29  96  CALM    30.18S
#MT HOWARD 8000 N/A         29  19  66  SW21G37 30.16F WCI 16
#PROMISE 1S     N/A         36  31  82  E10     30.42F
#WALLOWA SCHOOL N/A         32  31  96  CALM    30.23R



$$



USA.gov is the U.S. government's official web portal to all federal, state and local government web resources and services.